Guymon, OK

2:33 AM CST on November 21, 2017 (GMT -0600)
Guymon Municipal

Weather History for KGUY - August, 2013

Change the Weather History Date:

Tuesday, August 27, 2013

  Actual Average Record
Temperature  
Mean Temperature 79 °F 77 °F  
Max Temperature 93 °F 90 °F 102 °F (1999)
Min Temperature 64 °F 63 °F 53 °F (2010)
Degree Days  
Heating Degree Days 0 0  
Month to date heating degree days 0 0  
Since 1 June heating degree days 0 8  
Since 1 July heating degree days 0 0  
Cooling Degree Days 14 12  
Month to date cooling degree days 361 360  
Year to date cooling degree days 1474 1202  
Since 1 June cooling degree days 1270 1094  
Growing Degree Days 28 (Base 50)    
Moisture  
Dew Point 57 °F    
Average Humidity 53    
Maximum Humidity 78    
Minimum Humidity 28    
Precipitation  
Precipitation 0.00 in 0.10 in 0.13 in (2006)
Month to date precipitation 4.20 2.53  
Year to date precipitation 10.55 14.38  
Snow  
Snow 0.00 in - - ()
Month to date snowfall 0.0  
Since 1 June snowfall T  
Since 1 July snowfall 0.0  
Snow Depth 0.00 in    
Sea Level Pressure  
Sea Level Pressure 29.94 in    
Wind  
Wind Speed 12 mph (South)    
Max Wind Speed 24 mph    
Max Gust Speed 30 mph    
Visibility 10 miles    
Events      
T = Trace of Precipitation, MM = Missing Value Source: NWS Daily Summary

Daily Weather History Graph

Daily Weather History Graph

Search for Another Location

Airport or City:

Trip Planner

Search our weather history database for the weather conditions in past years. The results will help you decide how hot, cold, wet, or windy it might be!

Date:

Astronomy

Aug. 27, 2013 Rise Set
Actual Time 7:13 AM CDT 8:20 PM CDT
Civil Twilight 6:46 AM CDT 8:47 PM CDT
Nautical Twilight 6:14 AM CDT 9:19 PM CDT
Astronomical Twilight 5:41 AM CDT 9:52 PM CDT
Moon No Moon Rise 2:01 PM CDT (8/27)
Length of Visible Light 14h 00m
Length of Day
13h 07m
Waning Gibbous, 57% of the Moon is Illuminated
Aug 27
Waning Gibbous
Aug 28
Last Quarter
Sep 5
New
Sep 12
First Quarter
Sep 19
Full

Hourly Weather History & Observations

Time (CDT) Temp. Heat Index Dew Point Humidity Pressure Visibility Wind Dir Wind Speed Gust Speed Precip Events Conditions
12:53 AM 75.0 °F - 57.9 °F 55% 29.96 in 10.0 mi South 12.7 mph - N/A   Clear
1:53 AM 73.0 °F - 57.9 °F 59% 29.96 in 10.0 mi South 11.5 mph - N/A   Clear
2:53 AM 71.1 °F - 57.9 °F 63% 29.96 in 10.0 mi South 9.2 mph - N/A   Clear
3:53 AM 69.1 °F - 57.0 °F 65% 29.96 in 10.0 mi South 8.1 mph - N/A   Clear
4:53 AM 68.0 °F - 57.9 °F 70% 29.96 in 10.0 mi South 5.8 mph - N/A   Clear
5:53 AM 66.9 °F - 57.9 °F 73% 29.97 in 10.0 mi SSW 6.9 mph - N/A   Clear
6:53 AM 64.9 °F - 57.9 °F 78% 29.99 in 10.0 mi South 5.8 mph - N/A   Clear
7:53 AM 64.9 °F - 57.9 °F 78% 30.00 in 10.0 mi South 6.9 mph - N/A   Clear
8:53 AM 73.9 °F - 60.1 °F 62% 29.99 in 10.0 mi South 11.5 mph - N/A   Clear
9:53 AM 80.1 °F 81.1 °F 61.0 °F 52% 29.98 in 10.0 mi SSW 19.6 mph 26.5 mph N/A   Clear
10:53 AM 84.9 °F 85.0 °F 61.0 °F 44% 29.97 in 10.0 mi SSW 20.7 mph 28.8 mph N/A   Clear
11:53 AM 87.1 °F 86.7 °F 60.1 °F 40% 29.96 in 10.0 mi SSW 19.6 mph 28.8 mph N/A   Clear
12:53 PM 89.1 °F 88.8 °F 60.1 °F 38% 29.94 in 10.0 mi SSW 17.3 mph 25.3 mph N/A   Clear
1:53 PM 91.0 °F 90.0 °F 57.9 °F 33% 29.92 in 10.0 mi SSW 13.8 mph 24.2 mph N/A   Partly Cloudy
2:53 PM 91.0 °F 88.9 °F 55.0 °F 29% 29.91 in 10.0 mi SSW 17.3 mph 21.9 mph N/A   Clear
3:53 PM 91.9 °F 89.5 °F 54.0 °F 27% 29.90 in 10.0 mi SSW 13.8 mph 21.9 mph N/A   Clear
4:53 PM 91.9 °F 89.5 °F 54.0 °F 27% 29.89 in 10.0 mi South 13.8 mph 19.6 mph N/A   Clear
5:53 PM 91.0 °F 88.9 °F 55.0 °F 29% 29.89 in 10.0 mi SSE 17.3 mph 21.9 mph N/A   Clear
6:53 PM 89.1 °F 87.1 °F 55.0 °F 31% 29.89 in 10.0 mi South 12.7 mph 20.7 mph N/A   Clear
7:53 PM 84.9 °F 83.6 °F 55.0 °F 36% 29.90 in 10.0 mi SSE 9.2 mph - N/A   Clear
8:53 PM 80.1 °F 80.2 °F 55.9 °F 43% 29.90 in 10.0 mi SSE 8.1 mph - N/A   Clear
9:53 PM 75.9 °F - 55.9 °F 50% 29.91 in 10.0 mi SSE 10.4 mph - N/A   Clear
10:53 PM 77.0 °F - 55.9 °F 48% 29.91 in 10.0 mi SSE 13.8 mph - N/A   Clear
11:53 PM 75.0 °F - 59.0 °F 57% 29.91 in 10.0 mi South 12.7 mph - N/A   Clear